Location: Unspecified
(49.9820°N, 20.4363°E)
Time: 00:10:42
(UTC+02:00)

ISS - Pass Details

Date: 19 May 2018
Orbit: 402 x 407 km, 51.6° (Epoch: 24 May)

Event Time Altitude Azimuth Distance (km) Brightness Sun altitude
Exits shadow 00:57:36 62° 296° (WNW) 458 -3.6 -20.1°
Maximum altitude 00:58:00 73° 349° (N) 427 -3.7 -20.1°
Drops below altitude 10° 01:01:15 10° 75° (ENE) 1,459 -0.8 -20.1°
Sets 01:03:21 0° 78° (ENE) 2,319 0.3 -20.0°
